TimeEDT,TemperatureF,Dew PointF,Humidity,Sea Level PressureIn,VisibilityMPH,Wind Direction,Wind SpeedMPH,Gust SpeedMPH,PrecipitationIn,Events,Conditions,WindDirDegrees,DateUTC
12:15 AM,55.9,55.4,98,29.91,5.0,SE,10.4,-,N/A,,Overcast,140,2012-10-25 04:15:00
12:36 AM,55.8,55.4,99,29.90,4.0,SE,9.2,17.3,N/A,Rain,Light Rain,130,2012-10-25 04:36:00
12:55 AM,55.6,55.4,99,29.90,4.0,SE,10.4,18.4,N/A,,Overcast,140,2012-10-25 04:55:00
1:36 AM,55.4,54.9,98,29.88,3.0,SE,15.0,21.9,N/A,,Overcast,140,2012-10-25 05:36:00
1:55 AM,55.4,54.9,98,29.88,3.0,SE,12.7,19.6,N/A,,Overcast,140,2012-10-25 05:55:00
2:16 AM,55.2,54.7,98,29.88,3.0,SE,12.7,21.9,N/A,,Overcast,140,2012-10-25 06:16:00
2:36 AM,55.2,54.7,98,29.87,3.0,SE,13.8,-,N/A,,Overcast,140,2012-10-25 06:36:00
2:55 AM,55.0,54.5,98,29.87,3.0,SE,10.4,17.3,N/A,,Overcast,140,2012-10-25 06:55:00
3:35 AM,55.2,54.7,98,29.85,3.0,SE,11.5,-,N/A,,Overcast,140,2012-10-25 07:35:00
3:56 AM,55.0,54.7,99,29.84,3.0,SE,11.5,16.1,N/A,,Overcast,130,2012-10-25 07:56:00
4:16 AM,55.0,54.7,99,29.83,3.0,SE,10.4,-,N/A,,Overcast,140,2012-10-25 08:16:00
4:35 AM,54.7,54.5,99,29.82,2.5,SE,11.5,-,N/A,,Overcast,140,2012-10-25 08:35:00
4:56 AM,54.5,54.5,100,29.81,2.5,SE,9.2,17.3,N/A,,Overcast,140,2012-10-25 08:56:00
5:16 AM,54.5,54.5,100,29.80,2.5,SE,9.2,-,N/A,,Overcast,140,2012-10-25 09:16:00
5:35 AM,54.7,54.7,100,29.80,2.5,SSE,8.1,-,N/A,,Overcast,150,2012-10-25 09:35:00
5:56 AM,55.4,55.4,100,29.80,3.0,SSE,10.4,-,N/A,,Mist,150,2012-10-25 09:56:00
6:15 AM,56.3,56.1,99,29.79,4.0,SSE,9.2,-,N/A,,Overcast,160,2012-10-25 10:15:00
6:35 AM,56.5,55.9,98,29.78,4.0,SSE,9.2,-,N/A,,Overcast,150,2012-10-25 10:35:00
6:56 AM,57.0,56.1,97,29.79,5.0,SSE,10.4,17.3,N/A,,Mostly Cloudy,160,2012-10-25 10:56:00
7:15 AM,57.4,56.5,97,29.80,5.0,SSE,8.1,-,N/A,,Mostly Cloudy,160,2012-10-25 11:15:00
7:55 AM,58.1,57.0,96,29.79,7.0,SSE,10.4,-,N/A,,Scattered Clouds,150,2012-10-25 11:55:00
8:15 AM,58.1,56.8,96,29.79,5.0,SSE,9.2,-,N/A,,Clear,160,2012-10-25 12:15:00
8:35 AM,58.3,56.8,95,29.79,7.0,SSE,8.1,-,N/A,,Clear,160,2012-10-25 12:35:00
8:55 AM,58.8,57.2,94,29.78,7.0,SSE,10.4,16.1,N/A,,Clear,160,2012-10-25 12:55:00
9:35 AM,60.8,57.7,90,29.77,10.0,SSE,15.0,18.4,N/A,,Clear,150,2012-10-25 13:35:00
9:55 AM,61.0,58.1,90,29.77,10.0,SSE,12.7,19.6,N/A,,Clear,150,2012-10-25 13:55:00
10:16 AM,61.7,58.1,88,29.78,10.0,SSE,11.5,19.6,N/A,,Clear,160,2012-10-25 14:16:00
10:56 AM,63.1,58.1,84,29.77,10.0,SSE,12.7,19.6,N/A,,Clear,160,2012-10-25 14:56:00
11:16 AM,63.7,58.1,82,29.75,10.0,SSE,16.1,26.5,N/A,,Clear,160,2012-10-25 15:16:00
11:35 AM,63.9,57.9,81,29.74,10.0,SSE,15.0,23.0,N/A,,Clear,160,2012-10-25 15:35:00
11:56 AM,64.4,58.1,80,29.75,10.0,SSE,16.1,21.9,N/A,,Clear,150,2012-10-25 15:56:00
12:16 PM,65.1,57.6,76,29.74,10.0,SSE,13.8,19.6,N/A,,Clear,150,2012-10-25 16:16:00
12:35 PM,63.9,57.0,78,29.74,10.0,SSE,16.1,24.2,N/A,,Clear,150,2012-10-25 16:35:00
1:15 PM,64.6,57.0,76,29.72,10.0,SSE,16.1,25.3,N/A,,Clear,150,2012-10-25 17:15:00
1:36 PM,64.8,56.8,75,29.71,10.0,SE,11.5,21.9,N/A,,Clear,140,2012-10-25 17:36:00
1:55 PM,63.5,56.3,77,29.69,10.0,SSE,12.7,21.9,N/A,,Clear,150,2012-10-25 17:55:00
2:16 PM,63.1,56.3,78,29.68,10.0,SSE,15.0,19.6,N/A,,Clear,150,2012-10-25 18:16:00
2:36 PM,63.7,56.3,77,29.67,10.0,SSE,15.0,23.0,N/A,,Clear,150,2012-10-25 18:36:00
2:55 PM,64.9,56.5,74,29.68,10.0,SSE,12.7,24.2,N/A,,Clear,150,2012-10-25 18:55:00
3:16 PM,65.8,56.7,72,29.66,10.0,SE,10.4,20.7,N/A,,Clear,140,2012-10-25 19:16:00
3:36 PM,65.7,56.3,72,29.66,10.0,SE,13.8,23.0,N/A,,Clear,140,2012-10-25 19:36:00
4:16 PM,64.8,56.3,74,29.65,10.0,SSE,15.0,21.9,N/A,,Clear,150,2012-10-25 20:16:00
4:35 PM,64.4,56.3,75,29.65,10.0,SE,11.5,17.3,N/A,,Clear,140,2012-10-25 20:35:00
4:55 PM,63.3,55.8,76,29.65,10.0,SE,13.8,20.7,N/A,,Clear,140,2012-10-25 20:55:00
5:16 PM,62.8,55.6,77,29.65,10.0,SSE,11.5,17.3,N/A,,Clear,150,2012-10-25 21:16:00
5:35 PM,61.9,55.4,79,29.64,10.0,SSE,11.5,-,N/A,,Clear,150,2012-10-25 21:35:00
5:56 PM,61.3,55.4,81,29.63,10.0,SE,11.5,18.4,N/A,,Clear,140,2012-10-25 21:56:00
6:16 PM,61.9,55.4,79,29.63,10.0,SSE,13.8,21.9,N/A,,Clear,160,2012-10-25 22:16:00
6:35 PM,61.7,55.0,79,29.63,10.0,SSE,11.5,18.4,N/A,,Clear,160,2012-10-25 22:35:00
6:56 PM,61.5,54.9,79,29.64,10.0,SSE,12.7,21.9,N/A,,Clear,160,2012-10-25 22:56:00
7:16 PM,61.3,54.9,79,29.64,10.0,SSE,8.1,16.1,N/A,,Clear,160,2012-10-25 23:16:00
7:35 PM,62.6,55.4,77,29.65,10.0,South,9.2,-,N/A,,Scattered Clouds,170,2012-10-25 23:35:00
7:56 PM,63.9,55.4,74,29.64,10.0,SSE,10.4,16.1,N/A,,Mostly Cloudy,150,2012-10-25 23:56:00
8:16 PM,63.7,55.4,74,29.64,10.0,SSE,10.4,-,N/A,,Clear,150,2012-10-26 00:16:00
8:35 PM,64.0,55.4,73,29.64,10.0,SSE,11.5,-,N/A,,Scattered Clouds,150,2012-10-26 00:35:00
8:56 PM,64.4,55.2,72,29.63,10.0,SSE,12.7,21.9,N/A,,Clear,160,2012-10-26 00:56:00
9:15 PM,64.4,54.9,71,29.63,10.0,SSE,13.8,21.9,N/A,,Clear,160,2012-10-26 01:15:00
9:35 PM,64.6,54.9,71,29.62,10.0,South,13.8,20.7,N/A,,Clear,170,2012-10-26 01:35:00
9:56 PM,63.5,54.5,72,29.62,10.0,South,16.1,21.9,N/A,,Clear,170,2012-10-26 01:56:00
10:15 PM,64.4,54.7,71,29.62,10.0,South,13.8,19.6,N/A,,Clear,170,2012-10-26 02:15:00
10:35 PM,64.2,54.7,71,29.62,10.0,South,11.5,20.7,N/A,,Clear,170,2012-10-26 02:35:00
10:56 PM,64.2,54.9,72,29.62,10.0,South,11.5,23.0,N/A,,Mostly Cloudy,170,2012-10-26 02:56:00
11:36 PM,63.5,55.4,75,29.63,10.0,SSW,6.9,16.1,N/A,,Overcast,200,2012-10-26 03:36:00
11:55 PM,62.4,56.1,80,29.65,10.0,SSW,6.9,-,N/A,,Overcast,200,2012-10-26 03:55:00